Location: Alphen
(52.1351°N, 4.6549°E)
Time: 00:38:29
(UTC+00:00)

NOSS 3-2 (C) - Pass Details

Date: 27 January 2021
Orbit: 788 x 1424 km, 63.4° (Epoch: 25 February)

Event Time Altitude Azimuth Distance (km) Brightness Sun altitude
Rises 05:12:00 0° 198° (SSW) 3,349 6.2 -20.8°
Reaches altitude 10° 05:14:24 10° 192° (SSW) 2,469 5.5 -20.5°
Maximum altitude 05:19:46 44° 121° (ESE) 1,249 4.5 -19.6°
Drops below altitude 10° 05:25:55 10° 52° (NE) 2,830 6.5 -18.7°
Sets 05:28:50 0° 46° (NE) 3,891 7.2 -18.3°
